When you browse on this site, cookies collect data to enhance your experience and personalize the content and advertising you see.
Visit our Privacy Policy to learn more. By continuing to use the site, you agree to this use of cookies and data.
  • In Portugal
  • List of Countries
  • For 7 days
  • Water Temperature
  • Satellite Maps
  • Weather Map
  • Weather Widgets
  • user-avatar
    Login

    Hourly Weather Herāt

    Today, 22 July, Monday

    Time Temperature Precipitation Wind Pressure Humidity
    00:00 +34°C° 0 mm 11 mps 677 mmHg 17%
    01:00 +34°C° 0 mm 10 mps 677 mmHg 17%
    02:00 +33°C° 0 mm 9 mps 677 mmHg 19%
    03:00 +32°C° 0 mm 8 mps 676 mmHg 20%
    04:00 +29°C° 0 mm 7 mps 676 mmHg 22%
    05:00 +32°C° 0 mm 8 mps 677 mmHg 21%
    06:00 +33°C° 0 mm 9 mps 678 mmHg 20%
    07:00 +36°C° 0 mm 10 mps 678 mmHg 19%
    08:00 +37°C° 0 mm 11 mps 678 mmHg 17%
    09:00 +39°C° 0 mm 13 mps 678 mmHg 16%
    10:00 +41°C° 0 mm 14 mps 678 mmHg 14%
    11:00 +42°C° 0 mm 14 mps 678 mmHg 13%
    12:00 +42°C° 0 mm 14 mps 678 mmHg 13%
    13:00 +43°C° 0 mm 14 mps 678 mmHg 12%
    14:00 +43°C° 0 mm 13 mps 677 mmHg 12%
    15:00 +43°C° 0 mm 13 mps 676 mmHg 12%
    16:00 +42°C° 0 mm 13 mps 676 mmHg 12%
    17:00 +41°C° 0 mm 13 mps 676 mmHg 13%
    18:00 +38°C° 0 mm 12 mps 676 mmHg 14%
    19:00 +37°C° 0 mm 12 mps 676 mmHg 14%
    20:00 +36°C° 0 mm 11 mps 676 mmHg 14%
    21:00 +34°C° 0 mm 11 mps 676 mmHg 14%
    22:00 +33°C° 0 mm 11 mps 676 mmHg 14%
    23:00 +32°C° 0 mm 10 mps 675 mmHg 14%

    Tomorrow, 23 July, Tuesday

    Time Temperature Precipitation Wind Pressure Humidity
    00:00 +31°C° 0 mm 9 mps 675 mmHg 15%
    01:00 +29°C° 0 mm 8 mps 675 mmHg 15%
    02:00 +28°C° 0 mm 7 mps 674 mmHg 16%
    03:00 +27°C° 0 mm 7 mps 674 mmHg 17%
    04:00 +26°C° 0 mm 6 mps 674 mmHg 18%
    05:00 +28°C° 0 mm 6 mps 674 mmHg 17%
    06:00 +29°C° 0 mm 6 mps 675 mmHg 16%
    07:00 +32°C° 0 mm 6 mps 676 mmHg 15%
    08:00 +34°C° 0 mm 7 mps 676 mmHg 13%
    09:00 +37°C° 0 mm 8 mps 676 mmHg 12%
    10:00 +40°C° 0 mm 8 mps 676 mmHg 11%
    11:00 +40°C° 0 mm 9 mps 676 mmHg 10%
    12:00 +42°C° 0 mm 9 mps 676 mmHg 10%
    13:00 +43°C° 0 mm 10 mps 676 mmHg 9%
    14:00 +43°C° 0 mm 11 mps 675 mmHg 9%
    15:00 +43°C° 0 mm 12 mps 675 mmHg 9%
    16:00 +42°C° 0 mm 14 mps 675 mmHg 9%
    17:00 +41°C° 0 mm 12 mps 675 mmHg 8%
    18:00 +38°C° 0 mm 11 mps 675 mmHg 8%
    19:00 +36°C° 0 mm 10 mps 675 mmHg 8%
    20:00 +34°C° 0 mm 9 mps 675 mmHg 9%
    21:00 +33°C° 0 mm 8 mps 675 mmHg 9%
    22:00 +32°C° 0 mm 8 mps 675 mmHg 10%
    23:00 +30°C° 0 mm 7 mps 675 mmHg 11%

    Day after tomorrow, 24 July, Wednesday

    Time Temperature Precipitation Wind Pressure Humidity
    00:00 +29°C° 0 mm 6 mps 674 mmHg 12%
    01:00 +28°C° 0 mm 5 mps 674 mmHg 12%
    02:00 +27°C° 0 mm 4 mps 673 mmHg 13%
    03:00 +26°C° 0 mm 4 mps 673 mmHg 14%
    04:00 +26°C° 0 mm 3 mps 673 mmHg 15%
    05:00 +28°C° 0 mm 3 mps 673 mmHg 13%
    06:00 +30°C° 0 mm 4 mps 674 mmHg 12%
    07:00 +33°C° 0 mm 4 mps 675 mmHg 11%
    08:00 +36°C° 0 mm 6 mps 675 mmHg 10%
    09:00 +39°C° 0 mm 7 mps 675 mmHg 9%
    10:00 +43°C° 0 mm 9 mps 676 mmHg 8%
    11:00 +43°C° 0 mm 11 mps 675 mmHg 7%
    12:00 +45°C° 0 mm 13 mps 675 mmHg 7%
    13:00 +45°C° 0 mm 15 mps 675 mmHg 7%
    14:00 +45°C° 0 mm 15 mps 674 mmHg 6%
    15:00 +45°C° 0 mm 15 mps 674 mmHg 6%
    16:00 +46°C° 0 mm 15 mps 674 mmHg 6%
    17:00 +43°C° 0 mm 13 mps 674 mmHg 7%
    18:00 +41°C° 0 mm 12 mps 674 mmHg 8%
    19:00 +38°C° 0 mm 11 mps 674 mmHg 9%
    20:00 +37°C° 0 mm 10 mps 674 mmHg 10%
    21:00 +36°C° 0 mm 10 mps 674 mmHg 11%
    22:00 +34°C° 0 mm 9 mps 674 mmHg 12%
    23:00 +33°C° 0 mm 9 mps 673 mmHg 14%

    25 July, Thursday

    Time Temperature Precipitation Wind Pressure Humidity
    00:00 +33°C° 0 mm 9 mps 673 mmHg 16%
    01:00 +32°C° 0 mm 9 mps 673 mmHg 19%
    02:00 +31°C° 0 mm 8 mps 673 mmHg 20%
    03:00 +29°C° 0 mm 8 mps 673 mmHg 22%
    04:00 +28°C° 0 mm 8 mps 673 mmHg 24%
    05:00 +31°C° 0 mm 9 mps 673 mmHg 22%
    06:00 +32°C° 0 mm 9 mps 674 mmHg 20%
    07:00 +34°C° 0 mm 10 mps 674 mmHg 18%
    08:00 +37°C° 0 mm 11 mps 675 mmHg 16%
    09:00 +39°C° 0 mm 13 mps 675 mmHg 14%
    10:00 +41°C° 0 mm 15 mps 675 mmHg 12%
    11:00 +42°C° 0 mm 15 mps 675 mmHg 11%
    12:00 +44°C° 0 mm 16 mps 674 mmHg 11%
    13:00 +45°C° 0 mm 17 mps 674 mmHg 10%
    14:00 +45°C° 0 mm 16 mps 674 mmHg 10%
    15:00 +46°C° 0 mm 16 mps 673 mmHg 10%
    16:00 +46°C° 0 mm 16 mps 673 mmHg 10%
    17:00 +43°C° 0 mm 15 mps 673 mmHg 11%
    18:00 +42°C° 0 mm 15 mps 673 mmHg 12%
    19:00 +40°C° 0 mm 14 mps 673 mmHg 14%
    20:00 +38°C° 0 mm 15 mps 673 mmHg 15%
    21:00 +37°C° 0 mm 15 mps 673 mmHg 16%
    22:00 +34°C° 0 mm 15 mps 673 mmHg 17%
    23:00 +33°C° 0 mm 13 mps 673 mmHg 18%

    26 July, Friday

    Time Temperature Precipitation Wind Pressure Humidity
    00:00 +32°C° 0 mm 12 mps 673 mmHg 19%
    01:00 +31°C° 0 mm 11 mps 673 mmHg 20%
    02:00 +29°C° 0 mm 10 mps 673 mmHg 21%
    03:00 +28°C° 0 mm 8 mps 672 mmHg 22%
    04:00 +28°C° 0 mm 7 mps 672 mmHg 22%
    05:00 +29°C° 0 mm 8 mps 673 mmHg 20%
    06:00 +32°C° 0 mm 9 mps 673 mmHg 17%
    07:00 +34°C° 0 mm 11 mps 674 mmHg 14%
    08:00 +37°C° 0 mm 13 mps 674 mmHg 13%
    09:00 +40°C° 0 mm 15 mps 674 mmHg 11%
    10:00 +42°C° 0 mm 17 mps 674 mmHg 10%
    11:00 +42°C° 0 mm 18 mps 674 mmHg 9%
    12:00 +44°C° 0 mm 18 mps 674 mmHg 9%
    13:00 +45°C° 0 mm 18 mps 674 mmHg 8%
    14:00 +44°C° 0 mm 17 mps 673 mmHg 8%
    15:00 +44°C° 0 mm 17 mps 673 mmHg 8%
    16:00 +44°C° 0 mm 17 mps 673 mmHg 8%
    17:00 +42°C° 0 mm 15 mps 673 mmHg 10%
    18:00 +41°C° 0 mm 14 mps 673 mmHg 11%
    19:00 +38°C° 0 mm 13 mps 673 mmHg 12%
    20:00 +37°C° 0 mm 13 mps 673 mmHg 13%
    21:00 +36°C° 0 mm 13 mps 673 mmHg 13%
    22:00 +34°C° 0 mm 14 mps 674 mmHg 14%
    23:00 +34°C° 0 mm 13 mps 674 mmHg 15%

    27 July, Saturday

    Time Temperature Precipitation Wind Pressure Humidity
    00:00 +33°C° 0 mm 12 mps 674 mmHg 16%
    01:00 +32°C° 0 mm 11 mps 673 mmHg 16%
    02:00 +32°C° 0 mm 10 mps 673 mmHg 17%
    03:00 +31°C° 0 mm 9 mps 673 mmHg 18%
    04:00 +29°C° 0 mm 9 mps 673 mmHg 18%
    05:00 +32°C° 0 mm 9 mps 673 mmHg 17%
    06:00 +33°C° 0 mm 10 mps 674 mmHg 15%
    07:00 +36°C° 0 mm 10 mps 674 mmHg 14%
    08:00 +38°C° 0 mm 11 mps 674 mmHg 12%
    09:00 +41°C° 0 mm 13 mps 675 mmHg 10%
    10:00 +43°C° 0 mm 14 mps 675 mmHg 9%
    11:00 +45°C° 0 mm 14 mps 675 mmHg 9%
    12:00 +46°C° 0 mm 13 mps 675 mmHg 9%
    13:00 +46°C° 0 mm 13 mps 674 mmHg 8%
    14:00 +46°C° 0 mm 13 mps 674 mmHg 8%
    15:00 +46°C° 0 mm 13 mps 674 mmHg 8%
    16:00 +46°C° 0 mm 13 mps 673 mmHg 8%
    17:00 +43°C° 0 mm 13 mps 673 mmHg 10%
    18:00 +41°C° 0 mm 12 mps 673 mmHg 11%
    19:00 +38°C° 0 mm 12 mps 673 mmHg 12%
    20:00 +37°C° 0 mm 11 mps 673 mmHg 13%
    21:00 +37°C° 0 mm 10 mps 673 mmHg 14%
    22:00 +36°C° 0 mm 10 mps 673 mmHg 14%
    23:00 +34°C° 0 mm 9 mps 673 mmHg 15%
    Show more